Time,TemperatureF,DewpointF,PressureIn,WindDirection,WindDirectionDegrees,WindSpeedMPH,WindSpeedGustMPH,Humidity,HourlyPrecipIn,Conditions,Clouds,dailyrainin,SoftwareType,DateUTC
2013-06-06 00:12:00,52.2,48.0,30.08,ESE,117,0.0,1.0,84,0.00,,,0.00,weatherlink.com 1.10,2013-06-06 04:12:00,
2013-06-06 00:27:00,51.9,48.0,30.09,ESE,117,0.0,1.0,86,0.00,,,0.00,weatherlink.com 1.10,2013-06-06 04:27:00,
2013-06-06 00:42:00,51.0,47.0,30.09,ESE,117,0.0,2.0,87,0.00,,,0.00,weatherlink.com 1.10,2013-06-06 04:42:00,
2013-06-06 00:57:00,50.4,47.0,30.09,ESE,117,0.0,1.0,88,0.00,,,0.00,weatherlink.com 1.10,2013-06-06 04:57:00,
2013-06-06 01:12:00,50.1,47.0,30.08,ESE,117,0.0,2.0,90,0.00,,,0.00,weatherlink.com 1.10,2013-06-06 05:12:00,
2013-06-06 01:27:00,50.4,48.0,30.08,ESE,117,0.0,1.0,90,0.00,,,0.00,weatherlink.com 1.10,2013-06-06 05:27:00,
2013-06-06 01:42:00,50.5,47.0,30.09,ESE,117,0.0,1.0,89,0.00,,,0.00,weatherlink.com 1.10,2013-06-06 05:42:00,
2013-06-06 01:57:00,50.6,48.0,30.09,ESE,117,0.0,2.0,89,0.00,,,0.00,weatherlink.com 1.10,2013-06-06 05:57:00,
2013-06-06 02:13:00,50.9,48.0,30.09,ESE,117,0.0,2.0,89,0.00,,,0.00,weatherlink.com 1.10,2013-06-06 06:13:00,
2013-06-06 02:28:00,51.1,48.0,30.10,ESE,117,0.0,0.0,89,0.00,,,0.00,weatherlink.com 1.10,2013-06-06 06:28:00,
2013-06-06 02:43:00,51.6,48.0,30.10,ESE,117,0.0,0.0,88,0.00,,,0.00,weatherlink.com 1.10,2013-06-06 06:43:00,
2013-06-06 02:58:00,51.5,48.0,30.09,ESE,117,0.0,0.0,88,0.00,,,0.00,weatherlink.com 1.10,2013-06-06 06:58:00,
2013-06-06 03:13:00,51.1,48.0,30.09,ESE,117,0.0,0.0,89,0.00,,,0.00,weatherlink.com 1.10,2013-06-06 07:13:00,
2013-06-06 03:28:00,51.1,48.0,30.08,ESE,117,0.0,0.0,90,0.00,,,0.00,weatherlink.com 1.10,2013-06-06 07:28:00,
2013-06-06 03:43:00,51.5,49.0,30.08,ESE,117,0.0,0.0,90,0.00,,,0.00,weatherlink.com 1.10,2013-06-06 07:43:00,
2013-06-06 03:58:00,51.5,49.0,30.08,ESE,117,0.0,0.0,90,0.00,,,0.00,weatherlink.com 1.10,2013-06-06 07:58:00,
2013-06-06 04:13:00,51.5,49.0,30.07,NE,46,0.0,3.0,90,0.00,,,0.00,weatherlink.com 1.10,2013-06-06 08:13:00,
2013-06-06 04:28:00,51.3,48.0,30.07,NNW,331,0.0,3.0,89,0.00,,,0.00,weatherlink.com 1.10,2013-06-06 08:28:00,
2013-06-06 04:43:00,51.4,49.0,30.07,NW,314,2.0,3.0,90,0.00,,,0.00,weatherlink.com 1.10,2013-06-06 08:43:00,
2013-06-06 04:58:00,51.7,49.0,30.07,NNW,327,0.0,1.0,89,0.00,,,0.00,weatherlink.com 1.10,2013-06-06 08:58:00,
2013-06-06 05:13:00,51.5,49.0,30.06,NNW,327,0.0,2.0,90,0.00,,,0.00,weatherlink.com 1.10,2013-06-06 09:13:00,
2013-06-06 05:28:00,51.3,49.0,30.07,NNW,329,1.0,3.0,90,0.00,,,0.00,weatherlink.com 1.10,2013-06-06 09:28:00,
2013-06-06 05:43:00,50.9,48.0,30.07,NNW,332,1.0,1.0,90,0.00,,,0.00,weatherlink.com 1.10,2013-06-06 09:43:00,
2013-06-06 05:58:00,51.0,48.0,30.07,NNW,332,0.0,2.0,90,0.00,,,0.00,weatherlink.com 1.10,2013-06-06 09:58:00,
2013-06-06 06:13:00,51.0,48.0,30.07,NNW,332,0.0,2.0,90,0.00,,,0.00,weatherlink.com 1.10,2013-06-06 10:13:00,
2013-06-06 06:28:00,51.4,48.0,30.07,NNE,32,1.0,3.0,89,0.00,,,0.00,weatherlink.com 1.10,2013-06-06 10:28:00,
2013-06-06 06:43:00,52.2,49.0,30.07,West,261,0.0,3.0,89,0.00,,,0.00,weatherlink.com 1.10,2013-06-06 10:43:00,
2013-06-06 06:58:00,56.5,43.0,30.07,ESE,121,8.0,8.0,62,0.00,,,0.00,weatherlink.com 1.10,2013-06-06 10:58:00,
2013-06-06 07:13:00,60.0,42.0,30.07,ESE,123,1.0,6.0,52,0.00,,,0.00,weatherlink.com 1.10,2013-06-06 11:13:00,
2013-06-06 07:28:00,60.6,44.0,30.07,South,169,2.0,5.0,55,0.00,,,0.00,weatherlink.com 1.10,2013-06-06 11:28:00,
2013-06-06 07:43:00,61.7,41.0,30.07,SSE,158,2.0,10.0,46,0.00,,,0.00,weatherlink.com 1.10,2013-06-06 11:43:00,
2013-06-06 07:58:00,62.2,43.0,30.06,SSE,160,1.0,7.0,49,0.00,,,0.00,weatherlink.com 1.10,2013-06-06 11:58:00,
2013-06-06 08:13:00,62.2,43.0,30.07,East,94,3.0,5.0,49,0.00,,,0.00,weatherlink.com 1.10,2013-06-06 12:13:00,
2013-06-06 08:28:00,62.9,43.0,30.06,SSE,167,1.0,5.0,49,0.00,,,0.00,weatherlink.com 1.10,2013-06-06 12:28:00,
2013-06-06 08:43:00,64.0,43.0,30.06,East,95,3.0,7.0,47,0.00,,,0.00,weatherlink.com 1.10,2013-06-06 12:43:00,
2013-06-06 08:58:00,63.7,41.0,30.05,SE,132,5.0,5.0,43,0.00,,,0.00,weatherlink.com 1.10,2013-06-06 12:58:00,
2013-06-06 09:13:00,63.4,43.0,30.05,East,100,0.0,6.0,47,0.00,,,0.00,weatherlink.com 1.10,2013-06-06 13:13:00,
2013-06-06 09:28:00,63.5,43.0,30.05,ESE,120,1.0,6.0,47,0.00,,,0.00,weatherlink.com 1.10,2013-06-06 13:28:00,
2013-06-06 09:43:00,63.6,42.0,30.05,ESE,111,3.0,6.0,46,0.00,,,0.00,weatherlink.com 1.10,2013-06-06 13:43:00,
2013-06-06 09:58:00,63.9,37.0,30.05,ESE,103,2.0,4.0,37,0.00,,,0.00,weatherlink.com 1.10,2013-06-06 13:58:00,
2013-06-06 10:13:00,64.8,38.0,30.05,SSE,167,1.0,6.0,38,0.00,,,0.00,weatherlink.com 1.10,2013-06-06 14:13:00,
2013-06-06 10:29:00,65.8,40.0,30.04,SW,232,3.0,5.0,39,0.00,,,0.00,weatherlink.com 1.10,2013-06-06 14:29:00,
2013-06-06 10:44:00,66.0,40.0,30.04,SSE,148,3.0,7.0,38,0.00,,,0.00,weatherlink.com 1.10,2013-06-06 14:44:00,
2013-06-06 10:59:00,66.5,40.0,30.04,West,271,4.0,9.0,38,0.00,,,0.00,weatherlink.com 1.10,2013-06-06 14:59:00,
2013-06-06 11:14:00,66.3,40.0,30.04,SE,132,4.0,7.0,39,0.00,,,0.00,weatherlink.com 1.10,2013-06-06 15:14:00,
2013-06-06 11:29:00,66.5,40.0,30.04,SE,138,6.0,8.0,38,0.00,,,0.00,weatherlink.com 1.10,2013-06-06 15:29:00,
2013-06-06 11:44:00,66.9,42.0,30.03,SSE,155,1.0,9.0,41,0.00,,,0.00,weatherlink.com 1.10,2013-06-06 15:44:00,
2013-06-06 11:59:00,66.1,41.0,30.03,SSE,159,2.0,12.0,40,0.00,,,0.00,weatherlink.com 1.10,2013-06-06 15:59:00,
2013-06-06 12:14:00,64.2,42.0,30.03,WSW,251,7.0,11.0,44,0.00,,,0.00,weatherlink.com 1.10,2013-06-06 16:14:00,
2013-06-06 12:29:00,64.4,45.0,30.03,SSE,153,3.0,7.0,49,0.00,,,0.00,weatherlink.com 1.10,2013-06-06 16:29:00,
2013-06-06 12:44:00,65.0,46.0,30.02,WNW,302,2.0,8.0,51,0.00,,,0.00,weatherlink.com 1.10,2013-06-06 16:44:00,
2013-06-06 12:59:00,65.3,47.0,30.02,ESE,113,2.0,7.0,52,0.00,,,0.00,weatherlink.com 1.10,2013-06-06 16:59:00,
2013-06-06 13:14:00,66.5,49.0,30.01,South,180,4.0,9.0,53,0.00,,,0.00,weatherlink.com 1.10,2013-06-06 17:14:00,
2013-06-06 13:29:00,67.5,48.0,30.01,NE,37,2.0,7.0,50,0.00,,,0.00,weatherlink.com 1.10,2013-06-06 17:29:00,
2013-06-06 13:44:00,66.3,49.0,30.00,SE,142,5.0,10.0,55,0.00,,,0.00,weatherlink.com 1.10,2013-06-06 17:44:00,
2013-06-06 13:59:00,65.6,50.0,30.00,SE,132,2.0,9.0,57,0.00,,,0.00,weatherlink.com 1.10,2013-06-06 17:59:00,
2013-06-06 14:14:00,65.5,51.0,30.00,SE,144,4.0,10.0,59,0.00,,,0.00,weatherlink.com 1.10,2013-06-06 18:14:00,
2013-06-06 14:29:00,65.2,51.0,30.00,SE,126,3.0,8.0,60,0.00,,,0.00,weatherlink.com 1.10,2013-06-06 18:29:00,
2013-06-06 14:44:00,65.0,52.0,30.01,East,86,2.0,8.0,62,0.00,,,0.00,weatherlink.com 1.10,2013-06-06 18:44:00,
2013-06-06 14:59:00,64.6,50.0,30.00,SSW,205,4.0,10.0,60,0.00,,,0.00,weatherlink.com 1.10,2013-06-06 18:59:00,
2013-06-06 15:14:00,64.4,51.0,30.00,East,83,1.0,8.0,62,0.00,,,0.00,weatherlink.com 1.10,2013-06-06 19:14:00,
2013-06-06 15:29:00,63.7,51.0,30.00,SW,227,4.0,14.0,64,0.00,,,0.00,weatherlink.com 1.10,2013-06-06 19:29:00,
2013-06-06 15:44:00,63.3,50.0,29.99,SE,136,3.0,10.0,63,0.00,,,0.00,weatherlink.com 1.10,2013-06-06 19:44:00,
2013-06-06 15:59:00,62.7,50.0,30.00,SSE,161,6.0,12.0,63,0.00,,,0.00,weatherlink.com 1.10,2013-06-06 19:59:00,
2013-06-06 16:14:00,61.4,50.0,30.00,ESE,111,2.0,10.0,66,0.00,,,0.00,weatherlink.com 1.10,2013-06-06 20:14:00,
2013-06-06 16:29:00,60.1,52.0,30.00,South,184,1.0,7.0,74,0.00,,,0.00,weatherlink.com 1.10,2013-06-06 20:29:00,
2013-06-06 16:45:00,58.6,52.0,30.00,NE,51,1.0,9.0,80,0.01,,,0.01,weatherlink.com 1.10,2013-06-06 20:45:00,
2013-06-06 16:59:00,57.9,52.0,30.00,ENE,76,4.0,9.0,82,0.02,,,0.02,weatherlink.com 1.10,2013-06-06 20:59:00,
2013-06-06 17:14:00,57.1,52.0,30.00,SE,131,1.0,6.0,84,0.02,,,0.02,weatherlink.com 1.10,2013-06-06 21:14:00,
2013-06-06 17:29:00,56.8,52.0,30.00,ESE,113,2.0,10.0,84,0.04,,,0.04,weatherlink.com 1.10,2013-06-06 21:29:00,
2013-06-06 17:44:00,56.2,52.0,29.99,ESE,121,0.0,5.0,86,0.03,,,0.04,weatherlink.com 1.10,2013-06-06 21:44:00,
2013-06-06 17:59:00,56.3,53.0,29.99,ENE,61,3.0,3.0,87,0.03,,,0.05,weatherlink.com 1.10,2013-06-06 21:59:00,
2013-06-06 18:14:00,56.2,53.0,29.98,NE,44,1.0,3.0,88,0.04,,,0.06,weatherlink.com 1.10,2013-06-06 22:14:00,
2013-06-06 18:29:00,56.1,52.0,29.98,East,100,1.0,8.0,85,0.02,,,0.06,weatherlink.com 1.10,2013-06-06 22:29:00,
2013-06-06 18:44:00,55.9,52.0,29.99,ESE,112,1.0,5.0,86,0.02,,,0.06,weatherlink.com 1.10,2013-06-06 22:44:00,
2013-06-06 18:59:00,55.6,52.0,29.99,SE,134,1.0,5.0,88,0.01,,,0.06,weatherlink.com 1.10,2013-06-06 22:59:00,
2013-06-06 19:14:00,55.3,52.0,30.00,SW,223,2.0,5.0,87,0.00,,,0.06,weatherlink.com 1.10,2013-06-06 23:14:00,
2013-06-06 19:29:00,54.9,51.0,29.99,SE,145,2.0,7.0,86,0.01,,,0.07,weatherlink.com 1.10,2013-06-06 23:29:00,
2013-06-06 19:44:00,54.4,50.0,29.99,SSE,148,1.0,6.0,86,0.02,,,0.08,weatherlink.com 1.10,2013-06-06 23:44:00,
2013-06-06 19:59:00,54.0,51.0,29.99,SE,130,0.0,7.0,88,0.03,,,0.09,weatherlink.com 1.10,2013-06-06 23:59:00,
2013-06-06 20:14:00,53.5,51.0,29.98,ENE,73,0.0,6.0,90,0.05,,,0.11,weatherlink.com 1.10,2013-06-07 00:14:00,
2013-06-06 20:29:00,53.3,51.0,29.98,ESE,122,2.0,9.0,90,0.05,,,0.12,weatherlink.com 1.10,2013-06-07 00:29:00,
2013-06-06 20:44:00,53.2,50.0,29.98,East,85,3.0,7.0,90,0.05,,,0.13,weatherlink.com 1.10,2013-06-07 00:44:00,
2013-06-06 20:59:00,53.0,50.0,29.98,East,85,2.0,9.0,89,0.06,,,0.15,weatherlink.com 1.10,2013-06-07 00:59:00,
2013-06-06 21:14:00,52.8,50.0,29.98,SSW,198,1.0,9.0,90,0.07,,,0.18,weatherlink.com 1.10,2013-06-07 01:14:00,
2013-06-06 21:29:00,52.8,50.0,29.98,ESE,123,3.0,11.0,90,0.08,,,0.20,weatherlink.com 1.10,2013-06-07 01:29:00,
2013-06-06 21:44:00,53.1,50.0,29.98,SE,137,2.0,16.0,89,0.08,,,0.21,weatherlink.com 1.10,2013-06-07 01:44:00,
2013-06-06 21:59:00,53.3,51.0,29.98,SE,125,4.0,11.0,90,0.07,,,0.22,weatherlink.com 1.10,2013-06-07 01:59:00,
2013-06-06 22:14:00,53.5,50.0,29.98,SSW,192,2.0,8.0,89,0.05,,,0.23,weatherlink.com 1.10,2013-06-07 02:14:00,
2013-06-06 22:29:00,53.1,50.0,29.97,SSE,162,1.0,7.0,89,0.04,,,0.24,weatherlink.com 1.10,2013-06-07 02:29:00,
2013-06-06 22:44:00,52.7,50.0,29.96,ESE,109,2.0,10.0,90,0.05,,,0.26,weatherlink.com 1.10,2013-06-07 02:44:00,
2013-06-06 22:59:00,52.8,50.0,29.97,SSE,167,3.0,10.0,90,0.04,,,0.26,weatherlink.com 1.10,2013-06-07 02:59:00,
2013-06-06 23:14:00,53.6,50.0,29.97,ESE,119,4.0,13.0,87,0.03,,,0.26,weatherlink.com 1.10,2013-06-07 03:14:00,
2013-06-06 23:29:00,53.9,50.0,29.97,SSE,167,3.0,12.0,85,0.01,,,0.26,weatherlink.com 1.10,2013-06-07 03:29:00,
2013-06-06 23:45:00,54.0,50.0,29.97,SSE,151,1.0,12.0,87,0.00,,,0.26,weatherlink.com 1.10,2013-06-07 03:45:00,